Location: Unspecified
(0.0000°N, 0.0000°E)
Time: 13:45:16
(UTC+00:00)

Vanguard 1 - Pass Details

Date: 25 November 2019
Orbit: 652 x 3831 km, 34.3° (Epoch: 08 December)

Event Time Altitude Azimuth Distance (km) Brightness Sun altitude
Rises 23:44:59 0° 218° (SW) 5,952 14.3 -69.4°
Reaches altitude 10° 23:50:58 10° 200° (SSW) 5,538 14.0 -69.3°
Maximum altitude 00:01:50 18° 162° (SSE) 5,688 14.0 -69.0°
Drops below altitude 10° 00:15:05 10° 125° (SE) 6,888 14.5 -68.2°
Sets 00:24:09 0° 108° (ESE) 7,955 14.9 -67.4°
